World > North America > United States > Illinois

Stillwell, Illinois Regional Weather

Lat: 40.22N, Lon: 91.18W
Wx Zone: ILZ034Web Search

Helpful Tip: Type the letters wx in the search engine next time you need to find us.

Feedback


°F Click to change Stillwell hourly weather to Imperial units.Click to change Stillwell hourly weather to Metric units. °C
Stillwell Weather Map
UTC Time: 5/6/2021, 14:48
Your Time:

Stillwell, IL Regional Weather

Expires:202105061500;;686107
ASUS43 KLOT 061409
RWRIL 

ILLINOIS REGIONAL WEATHER ROUNDUP
NATIONAL WEATHER SERVICE CHICAGO/ROMEOVILLE IL
900 AM CDT THU MAY 06 2021

NOTE: "FAIR" INDICATES FEW OR NO CLOUDS BELOW 12,000 FEET WITH NO
SIGNIFICANT WEATHER AND/OR OBSTRUCTIONS TO VISIBILITY.

* THESE STATIONS ARE NOT UNDER NWS QUALITY CONTROL. THEY ALSO MAY NOT
  REPORT WEATHER SUCH AS PRECIPITATION OR FOG.


ILZ025>027-034>036-040-047-049-050-058-095>099-061500-
WEST-CENTRAL ILLINOIS
  
CITY           SKY/WX    TMP DP  RH WIND       PRES   REMARKS
QUINCY         PTSUNNY   58  43  57 W10       30.06S HAZE             
GALESBURG*     PTSUNNY   52  44  73 N16       30.08S                  
MACOMB*        PTSUNNY   57  47  68 NW8       30.09S                  
JACKSONVILLE*  PTSUNNY   61  44  54 SW13      30.07S                  
PITTSFIELD*    MOSUNNY   61  45  54 W8        30.08S                  
$$


SKY/WX - Weather  TMP - Temperature  DP - Dew Point  RH - Relative Humidity
WIND - Wind Direction/Speed PRES - Barometric Pressure VSB - Visibility
WCI - Wind Chill Index E13G22 Wind - East Wind 13 mph/Gusts of 22 mph